Regional Weather Roundup
Issued by NWS State College, PA

Home | Current Version | Previous Version | Text Only | Print | Product List | Glossary On
Versions: 1 2 3 4 5 6 7 8 9 10 11 12 13 14 15 16 17 18 19 20 21 22 23 24 25 26 27 28 29 30 31 32 33 34 35 36 37 38 39 40 41 42 43 44 45 46 47 48 49 50
000
ASUS41 KCTP 261510
RWRCTP

REGIONAL WEATHER ROUNDUP
NATIONAL WEATHER SERVICE STATE COLLEGE PA
1000 AM EST FRI DEC 26 2014

Note: "fair" indicates few or no clouds below 12,000 feet with no
significant weather and/or obstructions to visibility.

* = STATION THAT DOES NOT REPORT PRECIPITATION /E.G. RAIN...SNOW...ETC/
    THUNDER OR FOG.

PAZ002>004-007>009-013>016-020>023-029>032-261600-
WESTERN PENNSYLVANIA

CITY           SKY/WX    TMP DP  RH WIND       PRES   REMARKS
ERIE           SUNNY     40  29  64 S18G25    30.22S
MEADVILLE      SUNNY     36  29  75 S9        30.22S
FRANKLIN*      PTSUNNY   37  28  70 S13       30.26S
NEW CASTLE       N/A     38  31  76 S6        30.28F
BEAVER COUNTY  SUNNY     36  30  80 S6        30.27S
BUTLER*        MOSUNNY   37  30  75 S9        30.29F
PITTSBURGH INT MOSUNNY   36  30  79 S6        30.28F
PITTSBURGH     SUNNY     37  28  70 S9        30.28F
INDIANA*       CLOUDY    37  30  75 SW8       30.33S
LATROBE        PTSUNNY   37  32  81 SW9       30.33S
WASHINGTON CO* NOT AVBL
$$

PAZ004>006-010>012-017>019-024>028-033>037-041-042-045-046-049>053-261600-
CENTRAL PENNSYLVANIA

CITY           SKY/WX    TMP DP  RH WIND       PRES   REMARKS
BRADFORD       CLOUDY    32  25  75 SW8       30.23R
DUBOIS         CLOUDY    35  28  75 SW7       30.26S
CLEARFIELD     CLOUDY    36  27  69 W13G21    30.29R
JOHNSTOWN      CLOUDY    34  27  75 W7        30.26R
ALTOONA        SUNNY     37  29  72 W5        30.30R
STATE COLLEGE  PTSUNNY   37  28  70 W14       30.30R
WILLIAMSPORT   SUNNY     39  29  67 W6        30.29R
SELINSGROVE    SUNNY     40  31  70 CALM      30.32R
FT INDIANTOWN  SUNNY     41  29  61 W9        30.30R
CAPITAL CITY   SUNNY     40  30  67 W8        30.32R
HARRISBURG     SUNNY     39  30  70 NW9       30.31R
YORK           SUNNY     42  32  67 W5        30.32R
$$

PAZ038>040-043-044-047-048-054-055-060>062-067>071-261600-
EASTERN PENNSYLVANIA

CITY           SKY/WX    TMP DP  RH WIND       PRES   REMARKS
SCRANTON       SUNNY     38  27  64 W6        30.26R
MOUNT POCONO   SUNNY     35  26  69 NW7       30.20S
ALLENTOWN      SUNNY     42  29  59 W6        30.28F
QUAKERTOWN*    NOT AVBL
READING        SUNNY     41  30  65 W8        30.30R
LANCASTER      SUNNY     38  30  73 W8        30.32R
COATESVILLE    SUNNY     41  32  70 NW8       30.31R
POTTSTOWN      SUNNY     39  29  67 W5        30.32R
BLUE BELL      SUNNY     43  32  65 W6        30.30R
DOYLESTOWN     SUNNY     41  30  65 NW7       30.28R
WILLOW GROVE   NOT AVBL
NORTH PHILA    SUNNY     46  29  51 NW8       30.32R
PHILADELPHIA   MOSUNNY   43  29  57 W8        30.34R
$$


USA.gov is the U.S. government's official web portal to all federal, state and local government web resources and services.